Weather History for KGHW - January, 2013

Change the Weather History Date:

Wednesday, January 2, 2013

  Actual Average Record
Temperature  
Mean Temperature 16 °F -  
Max Temperature 24 °F 21 °F 40 °F (1962)
Min Temperature 8 °F 2 °F -24 °F (1985)
Degree Days  
Heating Degree Days 50    
Moisture  
Dew Point 14 °F    
Average Humidity 94    
Maximum Humidity 100    
Minimum Humidity 86    
Precipitation  
Precipitation 0.00 in - - ()
Sea Level Pressure  
Sea Level Pressure 29.89 in    
Wind  
Wind Speed 8 mph (SW)    
Max Wind Speed 13 mph    
Max Gust Speed -    
Visibility 5 miles    
Events Snow    
Averages and records for this station are not official NWS values.
T = Trace of Precipitation, MM = Missing Value Source: NWS Daily Summary

Daily Weather History Graph

Daily Weather History Graph

Search for Another Location

Airport or City:

Trip Planner

Search our weather history database for the weather conditions in past years. The results will help you decide how hot, cold, wet, or windy it might be!

Date:

Astronomy

Jan. 02, 2013 Rise Set
Actual Time 8:01 AM CST 4:49 PM CST
Civil Twilight 7:27 AM CST 5:23 PM CST
Nautical Twilight 6:50 AM CST 6:00 PM CST
Astronomical Twilight 6:14 AM CST 6:36 PM CST
Moon 10:41 PM CST (1/2) 10:27 AM CST (1/2)
Length of Visible Light 9h 55m
Length of Day
8h 47m
Waning Gibbous, 75% of the Moon is Illuminated
Jan 2
Waning Gibbous
Jan 4
Last Quarter
Jan 11
New
Jan 18
First Quarter
Jan 26
Full

Hourly Weather History & Observations

Time (CST) Temp. Windchill Dew Point Humidity Pressure Visibility Wind Dir Wind Speed Gust Speed Precip Events Conditions
12:13 AM 19.4 °F 6.6 °F 17.6 °F 93% 29.93 in 10.0 mi SSW 12.7 mph - N/A   Overcast
12:34 AM 19.4 °F 7.2 °F 17.6 °F 93% 29.92 in 7.0 mi SSW 11.5 mph - N/A   Overcast
12:53 AM 19.4 °F 6.6 °F 17.6 °F 93% 29.91 in 7.0 mi SSW 12.7 mph - N/A   Overcast
1:13 AM 15.8 °F 5.1 °F 15.8 °F 100% 29.91 in 7.0 mi SSW 8.1 mph - N/A   Mostly Cloudy
1:34 AM 12.2 °F 1.7 °F 12.2 °F 100% 29.90 in 7.0 mi SSW 6.9 mph - N/A   Clear
1:53 AM 12.2 °F 4.3 °F 10.4 °F 92% 29.90 in 7.0 mi SSW 4.6 mph - N/A   Clear
2:13 AM 10.4 °F -0.4 °F 10.4 °F 100% 29.89 in 7.0 mi South 6.9 mph - N/A   Clear
2:33 AM 8.6 °F -3.7 °F 8.6 °F 100% 29.89 in 7.0 mi SSW 8.1 mph - N/A   Clear
3:13 AM 8.6 °F -3.7 °F 6.8 °F 92% 29.89 in 7.0 mi South 8.1 mph - N/A   Clear
3:34 AM 8.6 °F -1.3 °F 6.8 °F 92% 29.89 in 7.0 mi SSW 5.8 mph - N/A   Clear
3:53 AM 8.6 °F 2.0 °F 6.8 °F 92% 29.89 in 5.0 mi SW 3.5 mph - N/A   Clear
4:13 AM 8.6 °F -2.6 °F 6.8 °F 92% 29.88 in 5.0 mi South 6.9 mph - N/A   Clear
4:34 AM 8.6 °F -2.6 °F 6.8 °F 92% 29.87 in 5.0 mi South 6.9 mph - N/A   Clear
4:53 AM 8.6 °F 2.0 °F 6.8 °F 92% 29.88 in 5.0 mi SSW 3.5 mph - N/A   Mostly Cloudy
5:14 AM 10.4 °F 0.8 °F 8.6 °F 92% 29.88 in 5.0 mi South 5.8 mph - N/A   Overcast
5:33 AM 12.2 °F 2.9 °F 10.4 °F 92% 29.88 in 5.0 mi SSW 5.8 mph - N/A   Overcast
6:14 AM 12.2 °F 4.3 °F 10.4 °F 92% 29.87 in 4.0 mi SSW 4.6 mph - N/A Snow Light Snow
6:33 AM 12.2 °F 2.9 °F 10.4 °F 92% 29.87 in 7.0 mi SSW 5.8 mph - N/A   Overcast
6:53 AM 12.2 °F 6.1 °F 10.4 °F 92% 29.87 in 7.0 mi South 3.5 mph - N/A Snow Light Snow
7:14 AM 12.2 °F 6.1 °F 10.4 °F 92% 29.87 in 5.0 mi South 3.5 mph - N/A Snow Light Snow
7:33 AM 14.0 °F 6.5 °F 12.2 °F 93% 29.87 in 4.0 mi South 4.6 mph - N/A Snow Light Snow
7:53 AM 14.0 °F 6.5 °F 12.2 °F 93% 29.87 in 4.0 mi SSW 4.6 mph - N/A Snow Light Snow
8:13 AM 14.0 °F 5.1 °F 12.2 °F 93% 29.87 in 2.5 mi SSW 5.8 mph - N/A Snow Light Snow
8:33 AM 14.0 °F 5.1 °F 12.2 °F 93% 29.87 in 2.0 mi South 5.8 mph - N/A   Overcast
9:13 AM 14.0 °F 5.1 °F 12.2 °F 93% 29.88 in 2.0 mi South 5.8 mph - N/A Snow Light Snow
9:33 AM 15.8 °F 7.2 °F 12.2 °F 86% 29.89 in 4.0 mi SSW 5.8 mph - N/A Snow Light Snow
9:54 AM 15.8 °F 7.2 °F 14.0 °F 93% 29.89 in 3.0 mi South 5.8 mph - N/A   Overcast
10:13 AM 17.6 °F 9.3 °F 15.8 °F 93% 29.90 in 2.5 mi SSW 5.8 mph - N/A   Overcast
10:33 AM 17.6 °F 8.2 °F 15.8 °F 93% 29.90 in 2.5 mi SSW 6.9 mph - N/A   Overcast
10:54 AM 17.6 °F 7.3 °F 17.6 °F 100% 29.90 in 2.0 mi SSW 8.1 mph - N/A   Overcast
11:13 AM 17.6 °F 8.2 °F 17.6 °F 100% 29.90 in 2.0 mi SW 6.9 mph - N/A   Overcast
11:33 AM 19.4 °F 10.4 °F 19.4 °F 100% 29.90 in 2.5 mi WSW 6.9 mph - N/A   Overcast
11:54 AM 19.4 °F 9.5 °F 17.6 °F 93% 29.89 in 2.5 mi West 8.1 mph - N/A   Overcast
12:13 PM 19.4 °F 10.4 °F 19.4 °F 100% 29.89 in 3.0 mi West 6.9 mph - N/A   Overcast
12:33 PM 21.2 °F 11.7 °F 19.4 °F 93% 29.88 in 3.0 mi West 8.1 mph - N/A   Overcast
12:54 PM 21.2 °F 12.6 °F 21.2 °F 100% 29.88 in 5.0 mi West 6.9 mph - N/A   Overcast
1:13 PM 23.0 °F 13.9 °F 21.2 °F 93% 29.89 in 7.0 mi West 8.1 mph - N/A   Overcast
1:33 PM 23.0 °F 13.1 °F 21.2 °F 93% 29.90 in 7.0 mi West 9.2 mph - N/A   Overcast
1:54 PM 21.2 °F 12.6 °F 21.2 °F 100% 29.90 in 7.0 mi West 6.9 mph - N/A   Overcast
2:13 PM 23.0 °F 15.8 °F 21.2 °F 93% 29.90 in 7.0 mi West 5.8 mph - N/A   Overcast
2:33 PM 23.0 °F 18.4 °F 21.2 °F 93% 29.91 in 7.0 mi West 3.5 mph - N/A   Overcast
2:50 PM 23.0 °F 17.0 °F 21.2 °F 93% 29.92 in 7.0 mi West 4.6 mph - N/A   Overcast
3:03 PM 24.8 °F 16.1 °F 23.0 °F 93% 29.93 in 10.0 mi WNW 8.1 mph - N/A   Overcast